Tracking 27112 objects as of 27-Mar-2023
HD Live streaming from Space Station
objects crossing your sky now

STARLINK-3877

Track STARLINK-3877 now!
10-day predictions
STARLINK-3877 is classified as:


NORAD ID: 52355
Int'l Code: 2022-045AA
Perigee: 545.9 km
Apogee: 548.1 km
Inclination: 53.2 °
Period: 95.4 minutes
Semi major axis: 6917 km
RCS: Unknown
Launch date: April 29, 2022
Source: United States (US)
Launch site: AIR FORCE EASTERN TEST RANGE (AFETR)
Your satellite tracking list
Your tracking list is empty




NASA's NSSDC Master Catalog

Two Line Element Set (TLE):
1 52355U 22045AA  23085.17448324  .00013840  00000-0  88657-3 0  9997
2 52355  53.2171   5.2539 0001585  63.2210 296.8944 15.08814434 52814
Source of the keplerian elements: AFSPC